Location: Buckenweiler
(49.0667°N, 10.2500°E)
Time: 20:47:30
(UTC+00:00)

BREEZE-M DEB (TANK) - Pass Details

Date: 18 January 2026
Orbit: 359 x 16119 km, 49.4° (Epoch: 18 February)

Event Time Altitude Azimuth Distance (km) Brightness Sun altitude
Exits shadow 04:20:46 48° 264° (W) 1,837 4.4 -26.5°
Maximum altitude 04:23:33 89° 349° (N) 1,935 4.9 -26.0°
Drops below altitude 10° 04:56:42 10° 90° (E) 12,078 10.2 -20.6°
Sets 05:17:57 0° 94° (E) 16,571 11.5 -17.2°
